Location: Unspecified
(52.0000°N, 4.4000°E)
Time: 05:58:04
(UTC+00:00)

Cosmos 2369 - Pass Details

Date: 14 May 2025
Orbit: 840 x 852 km, 71.0° (Epoch: 22 June)

Event Time Altitude Azimuth Distance (km) Brightness Sun altitude
Rises 22:37:57 0° 329° (NNW) 3,418 8.3 -17.9°
Reaches altitude 10° 22:40:25 10° 330° (NNW) 2,478 7.3 -18.0°
Maximum altitude 22:46:07 84° 58° (ENE) 855 3.7 -18.2°
Enters shadow 22:49:04 30° 146° (SE) 1,475 4.4 -18.3°
